GEFSMA_con_cape1000_294.txt.gz
Probability
10 6 6 10 13 10 6 10 6 6 3 3 6 6 6 0 0 10 13 35 39 45 45 39 35 39 32 32 32 32 35 35 35 35 32 29 26 23 23 23 23 23 23
10 6 6 10 6 3 3 3 3 3 3 3 6 3 3 3 0 3 10 19 26 39 45 42 29 26 29 26 26 29 29 32 35 29 26 26 23 26 23 23 26 19 19
6 3 6 6 3 3 3 3 3 3 3 3 3 6 6 0 3 6 10 10 26 29 42 45 32 32 29 29 23 26 23 23 26 26 29 29 26 26 26 23 19 16 10
6 3 3 3 3 3 3 3 3 3 3 3 3 3 3 3 6 3 6 3 13 16 26 29 32 35 29 26 19 19 19 19 19 23 19 26 26 19 19 19 16 10 6
6 6 6 3 0 0 3 3 3 0 0 0 0 3 3 3 3 6 3 3 3 10 16 19 23 32 26 19 16 16 16 16 19 16 16 16 19 19 19 16 10 3 3
6 6 3 3 3 0 3 3 3 3 3 3 3 3 3 3 3 3 3 3 3 3 3 3 13 13 16 19 23 19 16 10 19 16 16 16 16 16 16 13 3 3 3
6 3 3 3 3 3 3 3 3 3 3 3 3 3 3 0 0 0 0 3 3 3 3 3 0 0 10 19 19 16 16 13 16 16 13 13 16 16 13 3 3 3 3
10 6 3 3 0 0 3 3 0 3 3 3 3 3 3 0 0 0 0 0 0 0 0 3 3 3 3 13 13 19 19 19 13 13 13 16 19 16 13 10 3 3 3
3 6 6 0 0 0 0 0 0 0 0 0 3 3 3 0 0 0 0 0 0 0 0 0 0 0 6 6 13 16 19 19 16 16 16 16 13 16 13 13 10 6 3
3 3 6 3 0 0 0 0 0 0 0 0 0 0 0 0 0 0 0 0 0 0 0 0 0 3 3 6 6 10 6 10 13 16 13 16 13 13 13 13 13 10 3
3 3 3 0 0 0 0 0 0 0 0 0 0 0 0 0 0 0 0 0 0 0 0 0 0 0 0 6 6 6 3 3 6 13 13 10 13 13 13 13 13 10 3
3 3 0 0 3 0 0 0 0 0 0 0 0 0 0 0 0 0 0 0 0 0 0 0 0 0 0 0 3 3 3 3 3 6 6 10 10 13 13 13 10 10 6
0 0 0 0 0 0 0 0 0 0 0 0 0 0 0 0 0 0 0 0 0 0 0 0 0 0 0 0 3 3 3 3 3 0 0 0 3 6 6 6 6 10 6
0 0 0 0 0 0 0 0 0 0 0 0 0 0 0 0 0 0 0 0 0 0 0 0 0 0 0 0 0 0 3 0 0 0 0 0 0 0 0 0 3 6 6
0 0 0 0 0 0 0 0 0 0 0 0 0 0 0 0 0 0 0 0 0 0 0 0 0 0 0 0 0 0 0 0 0 0 0 0 0 0 0 0 0 0 0
0 0 0 0 0 0 0 0 0 0 0 0 0 0 0 0 0 0 0 0 0 0 0 0 0 0 0 0 0 0 0 0 0 0 0 0 0 0 0 0 0 0 0
0 0 0 0 0 0 0 0 0 0 0 0 0 0 0 0 0 0 0 0 0 0 0 0 0 0 0 0 0 0 0 0 0 0 0 0 0 0 0 0 0 0 0
0 0 0 0 0 0 0 0 0 0 0 0 0 0 0 0 0 0 0 0 0 0 0 0 0 0 0 0 0 0 0 0 0 0 0 0 0 0 0 0 0 0 0
0 0 0 0 0 0 0 0 0 0 0 0 0 0 0 0 0 0 0 0 0 0 0 0 0 0 0 0 0 0 0 0 0 0 0 0 0 0 0 0 0 0 0
0 0 0 0 0 0 0 0 0 0 0 0 0 0 0 0 0 0 0 0 0 0 0 0 0 0 0 0 0 0 0 0 0 0 0 0 0 0 0 0 0 0 0
0 0 0 0 0 0 0 0 0 0 0 0 0 0 0 0 0 0 0 3 0 0 0 0 0 0 0 0 0 0 0 0 0 0 0 0 0 0 0 0 0 0 0
0 0 0 0 0 0 0 0 0 0 0 0 0 0 0 0 0 0 0 0 0 0 0 0 0 0 0 0 0 0 0 0 0 0 0 0 0 0 0 0 0 0 0
0 0 0 0 0 0 0 0 0 0 0 0 0 0 0 0 0 0 0 0 0 0 0 0 0 0 0 0 0 0 0 0 0 0 0 0 0 0 0 0 0 0 0
0 0 0 0 0 0 0 0 0 0 0 0 0 0 0 0 0 0 0 0 0 0 0 0 0 0 0 0 0 0 0 0 0 0 0 0 0 0 0 0 0 0 0
0 0 0 0 0 0 0 0 0 0 0 0 0 0 0 0 0 0 0 0 0 0 0 0 0 0 0 0 0 0 0 0 0 0 0 0 0 0 0 0 0 0 0
0 0 0 0 0 0 0 0 0 0 0 0 0 0 0 0 0 0 0 0 0 0 0 0 0 0 0 0 0 0 0 0 0 0 0 0 0 0 0 0 0 0 0

GEFSMA_con_cape1000_300.txt.gz
Probability
45 39 52 45 32 26 32 35 23 16 26 16 13 13 13 23 16 19 23 29 32 29 29 35 29 32 29 29 29 32 35 35 29 26 26 19 23 16 23 29 29 26 29
45 45 45 42 32 32 26 26 26 26 23 23 16 16 16 13 19 29 26 26 29 29 23 32 32 29 29 26 29 29 29 29 29 29 26 26 26 19 23 16 13 13 23
35 42 42 39 32 39 42 35 29 23 29 26 26 19 26 16 19 26 23 32 26 23 26 26 32 29 26 26 23 23 19 26 23 19 19 19 19 23 23 16 13 13 13
42 42 39 29 42 35 32 26 23 26 29 29 29 23 19 19 10 13 19 26 29 23 26 23 23 26 23 23 23 23 19 19 23 19 19 23 19 19 19 19 16 10 10
39 42 48 45 42 29 29 19 23 23 26 19 23 19 13 16 13 13 13 19 29 26 23 23 23 19 23 23 23 23 23 19 16 16 19 23 19 16 13 13 16 10 6
35 39 45 42 26 26 32 23 29 32 23 29 3 10 10 13 10 13 10 10 23 13 13 13 26 19 26 26 23 23 19 19 13 13 16 16 19 16 13 13 10 10 6
42 42 35 48 29 32 35 19 23 13 13 16 16 13 10 6 6 16 13 10 10 10 6 10 16 16 26 29 23 23 23 19 13 13 13 13 13 13 10 10 10 6 6
45 26 45 45 42 45 42 35 23 19 13 13 16 16 16 10 6 3 6 6 6 3 3 3 10 16 16 23 16 10 19 23 23 16 13 16 19 13 10 10 10 10 3
39 39 32 39 35 32 35 42 32 23 19 19 16 13 16 10 3 6 3 6 6 3 3 3 3 13 16 23 26 13 16 16 23 23 16 16 16 13 13 13 6 6 0
32 39 29 35 35 32 45 32 16 16 23 16 19 16 13 6 3 6 3 3 3 3 6 0 3 6 13 19 19 6 10 10 13 19 16 16 16 16 13 13 13 16 6
35 32 32 39 39 32 29 29 35 19 23 16 19 10 10 10 6 10 13 10 6 3 6 3 0 3 10 10 23 16 6 3 6 10 13 13 13 16 13 13 13 13 6
39 32 26 39 42 32 32 35 32 19 26 19 13 13 10 6 10 13 13 13 10 0 0 6 3 3 3 6 6 3 6 0 0 3 10 10 13 13 10 13 13 13 10
26 35 29 35 39 35 32 32 32 19 19 16 16 6 10 13 10 10 16 16 6 6 0 3 10 10 3 3 6 3 3 0 0 0 0 6 6 6 6 6 6 10 6
26 35 35 32 32 26 16 26 26 16 26 26 16 23 19 13 10 10 10 13 10 6 13 0 3 10 6 6 3 0 6 0 0 0 0 0 3 3 3 3 3 3 3
32 32 32 32 32 29 23 32 23 29 26 29 19 23 13 6 13 6 10 13 6 10 16 6 10 6 10 16 0 6 10 0 0 0 0 0 0 0 0 0 0 0 0
45 32 29 29 29 29 29 32 26 26 19 26 26 19 16 16 13 13 10 10 13 6 3 13 16 16 19 3 0 10 13 0 0 0 0 0 0 0 0 0 0 0 0
39 35 32 32 26 26 23 26 19 13 10 6 6 10 19 16 16 13 13 10 10 13 10 13 13 10 19 13 13 10 10 16 10 0 0 0 0 0 0 0 0 0 0
32 32 29 29 23 19 19 19 19 10 10 6 3 3 3 6 13 16 10 6 6 13 10 10 13 10 16 13 10 10 6 3 6 0 0 0 0 0 0 0 0 0 0
32 26 29 26 16 16 16 19 19 10 6 3 3 3 0 3 10 6 13 6 6 6 16 16 13 19 13 13 10 6 6 16 0 0 0 0 0 0 0 0 0 0 0
29 23 19 23 19 16 16 13 13 6 3 3 3 0 0 0 3 6 3 6 16 16 16 16 13 16 19 13 10 13 10 13 3 0 0 0 0 0 0 0 0 0 0
16 26 23 23 16 13 6 10 13 0 3 3 3 3 0 0 0 0 0 3 13 13 16 13 13 16 13 13 13 10 10 6 13 6 6 3 0 0 0 0 0 0 0
23 23 16 13 10 3 0 0 3 3 3 3 3 6 3 0 0 0 0 0 0 6 13 16 13 3 6 10 13 6 6 3 3 10 6 6 6 3 3 0 0 0 0
26 23 23 16 16 3 0 0 0 6 6 6 13 10 3 0 0 0 0 0 0 0 0 13 3 3 6 10 13 16 16 10 10 6 10 3 0 3 0 0 0 0 0
29 32 35 16 23 3 0 0 0 0 10 6 13 13 6 6 3 3 3 3 0 3 0 0 10 10 6 10 16 19 19 19 26 19 13 6 3 3 0 3 0 0 0
35 32 32 26 26 10 0 0 0 0 6 13 13 6 6 6 3 0 0 0 3 3 0 0 0 3 3 3 3 10 13 10 10 13 13 3 10 10 10 6 0 0 0
45 32 23 26 26 26 3 0 0 0 6 6 19 13 0 0 0 0 0 6 6 6 10 0 0 0 0 0 0 3 10 13 10 3 10 10 3 3 0 6 3 0 0

GEFSMA_con_cape1000_306.txt.gz
Probability
55 52 55 58 45 45 48 52 32 29 29 23 19 19 13 16 19 16 16 35 35 35 39 35 35 39 39 32 32 29 26 26 26 29 23 26 23 26 26 26 23 19 19
58 55 55 55 48 55 42 42 42 35 29 23 19 19 19 19 19 19 19 23 42 42 35 35 39 35 32 32 29 26 26 26 26 26 26 23 19 19 19 19 23 13 10
58 58 52 55 52 45 42 42 42 42 32 29 23 26 23 26 19 26 16 16 13 32 35 42 39 35 29 26 29 26 23 23 19 23 19 29 23 19 16 16 13 16 10
52 52 48 45 42 42 42 45 35 32 39 32 26 26 26 29 19 26 26 19 19 19 26 39 39 32 29 29 26 23 19 19 19 19 19 19 19 19 19 16 13 13 10
48 45 52 52 35 39 39 32 32 32 39 35 32 42 29 29 26 16 26 19 23 26 19 23 35 32 29 32 26 23 23 19 19 19 19 19 16 16 16 16 16 6 6
48 39 55 42 39 45 45 42 39 48 42 42 16 10 23 23 29 29 23 16 19 16 16 16 10 13 26 29 26 26 23 19 19 19 19 19 16 13 16 13 13 10 6
45 48 35 45 48 45 42 39 48 42 42 35 19 13 16 16 23 29 23 19 13 10 10 13 16 13 13 26 29 26 26 23 23 19 19 19 19 13 13 10 10 6 3
48 32 52 45 48 45 42 48 45 42 39 35 19 6 6 6 10 10 19 16 6 6 6 6 10 16 16 16 10 29 29 29 23 26 23 23 19 13 10 6 10 10 0
39 48 45 45 45 39 42 45 45 39 35 45 39 29 13 6 3 3 6 10 13 10 6 6 10 10 16 19 16 19 32 32 26 26 26 23 23 16 10 6 6 6 3
42 42 45 45 45 39 45 42 39 39 35 39 32 29 19 29 13 3 10 10 13 16 6 6 6 13 16 19 16 16 26 23 26 26 26 26 23 19 13 16 13 6 6
45 42 42 45 42 35 35 29 42 39 45 29 23 26 19 26 19 13 3 6 6 16 10 16 16 13 19 23 23 16 13 10 6 16 16 16 16 16 10 10 10 10 13
48 42 42 45 45 42 45 42 45 42 48 35 39 42 23 16 13 6 6 6 6 10 13 19 16 13 26 16 10 6 6 6 3 3 10 13 16 16 10 10 6 6 6
48 48 42 52 48 45 45 45 42 42 42 39 32 39 32 19 26 19 13 6 6 6 6 16 16 13 3 16 13 6 6 3 0 0 3 3 10 10 10 10 6 6 6
45 48 52 52 52 45 35 48 42 42 39 42 29 39 29 16 19 23 13 10 3 3 10 6 16 19 10 26 6 3 10 0 0 0 0 0 3 6 6 3 6 6 6
45 52 45 48 48 48 42 42 45 45 45 42 42 32 35 26 19 19 16 13 6 3 3 10 6 16 23 19 0 6 16 0 0 0 0 0 3 3 0 0 0 0 0
48 45 48 52 45 45 42 45 45 45 45 39 45 35 35 19 19 16 19 13 6 6 6 10 10 16 10 3 0 13 23 3 0 0 0 0 0 0 0 0 0 0 0
45 42 42 39 42 39 39 42 45 45 42 42 35 32 29 26 19 26 19 16 10 6 6 6 16 19 19 13 6 19 13 6 3 0 0 0 0 0 0 0 0 0 0
52 45 42 39 42 35 35 35 35 32 35 39 39 32 19 6 16 19 19 13 13 10 3 3 6 13 16 16 26 13 3 6 3 0 0 0 0 0 0 0 0 0 0
45 39 39 39 39 35 35 32 35 32 35 35 39 29 19 23 16 19 13 16 19 3 6 3 3 10 10 19 10 6 3 10 3 0 0 0 0 0 0 0 0 0 0
45 45 42 35 39 32 32 29 35 39 39 35 32 26 19 16 23 19 10 16 13 6 3 3 3 6 13 13 13 10 6 13 6 0 0 0 0 0 0 0 0 0 0
45 45 42 42 32 29 26 29 35 32 35 35 29 23 16 10 10 6 0 6 6 3 6 6 6 3 6 13 6 3 3 6 6 6 6 3 0 0 0 0 0 0 0
48 42 39 39 32 19 6 6 26 35 35 32 26 19 16 0 0 0 0 0 0 0 6 6 3 3 3 6 10 3 3 6 3 10 3 3 3 6 3 0 0 0 0
45 45 42 45 32 19 0 0 0 26 26 32 29 26 0 0 0 3 0 0 0 0 0 0 3 3 3 6 10 3 3 3 3 6 6 3 3 6 3 0 0 0 0
45 39 42 42 35 13 0 0 0 10 19 26 23 23 16 19 0 3 6 3 3 3 0 3 3 6 3 10 13 6 6 10 6 10 6 3 3 3 0 0 0 0 0
42 35 35 35 32 13 0 0 0 6 10 23 23 16 23 13 3 0 0 10 13 10 3 0 0 0 0 0 0 6 3 0 0 3 13 3 0 3 3 3 0 0 0
35 29 29 29 19 19 0 0 0 6 13 13 19 16 0 0 0 0 6 19 16 16 6 3 0 0 0 0 0 0 3 3 3 3 6 6 3 3 0 3 3 3 0

GEFSMA_con_cape1000_312.txt.gz
Probability
13 13 13 13 13 13 10 10 6 6 6 3 0 0 0 0 3 3 10 23 35 35 32 35 39 35 35 35 32 29 29 29 29 29 32 32 35 29 32 32 29 26 26
13 13 13 10 10 10 10 10 6 6 3 3 0 0 0 0 0 3 3 16 29 32 29 35 35 29 32 32 32 29 29 29 29 26 26 23 32 32 29 32 29 23 19
16 13 13 10 10 10 10 6 6 6 3 0 0 3 6 0 3 6 6 6 13 26 32 35 39 39 35 32 29 29 29 26 26 26 26 26 26 23 23 26 19 19 13
10 6 6 6 6 6 10 6 3 3 0 0 0 3 0 3 0 3 6 6 6 10 19 32 39 35 39 39 29 23 29 26 26 26 26 26 26 26 19 19 19 16 6
13 13 6 3 3 3 3 3 3 3 0 0 3 3 0 0 0 0 0 6 6 6 10 10 39 35 39 39 35 26 26 26 26 26 26 29 23 23 16 19 16 13 6
13 6 6 6 3 3 6 6 6 0 0 0 3 0 0 0 0 0 0 0 0 6 10 10 10 10 32 35 32 35 23 26 26 19 23 26 23 16 13 16 13 13 10
13 6 6 3 3 3 6 6 3 0 0 0 0 0 0 0 0 0 0 0 3 3 3 3 6 10 10 26 32 29 29 26 29 19 19 23 23 19 16 13 3 10 6
10 3 3 6 3 3 3 3 0 0 0 0 0 0 0 0 0 0 0 0 0 0 0 3 3 3 3 10 10 29 29 29 29 26 26 23 23 19 13 13 10 0 3
13 6 6 10 3 3 3 3 0 0 0 0 0 0 0 0 0 0 0 0 0 0 0 3 0 3 3 3 6 13 32 32 32 32 26 26 23 23 19 13 16 6 6
13 13 6 6 6 3 3 0 0 0 0 0 0 0 0 0 0 0 0 0 0 0 0 0 3 3 3 3 3 6 10 16 32 29 29 26 26 23 19 19 16 13 6
13 13 6 10 3 6 10 3 3 3 3 0 0 0 0 0 0 0 0 0 0 0 0 0 0 3 3 3 3 3 6 10 6 16 29 29 26 23 23 23 19 16 6
16 16 13 13 13 13 10 3 3 3 3 3 0 0 0 0 0 0 0 0 0 0 0 0 0 0 3 3 3 6 3 3 0 3 3 16 16 19 19 19 16 16 10
13 13 16 13 13 16 10 3 3 3 3 3 0 0 0 0 0 0 0 0 0 0 0 0 0 0 0 3 3 3 3 3 0 0 0 0 6 10 13 16 16 19 10
13 13 16 13 16 13 13 6 3 3 3 0 0 0 0 0 0 0 0 0 0 0 0 0 0 0 0 0 0 0 3 0 0 0 0 0 0 3 6 3 3 3 3
16 16 13 13 13 16 13 6 3 0 0 0 0 0 0 0 0 0 0 0 0 0 0 0 0 0 0 0 0 0 3 0 0 0 0 0 0 0 0 0 0 0 0
13 13 10 10 10 10 10 10 3 0 0 0 0 0 0 0 0 0 0 0 0 0 0 0 0 0 0 0 0 0 0 0 0 0 0 0 0 0 0 0 0 0 0
13 16 10 10 10 10 10 6 3 3 0 0 0 0 0 0 0 0 0 0 0 0 0 0 0 0 0 0 0 0 0 0 0 0 0 0 0 0 0 0 0 0 0
13 13 13 10 10 10 6 3 0 0 0 0 0 0 0 0 0 0 0 0 0 0 0 0 0 0 0 0 0 0 0 0 0 0 0 0 0 0 0 0 0 0 0
13 16 13 10 6 6 6 3 3 3 0 0 0 0 0 0 0 0 0 0 0 0 0 0 0 0 0 0 0 0 0 0 0 0 0 0 0 0 0 0 0 0 0
16 16 6 6 6 10 10 10 6 0 0 0 0 0 0 0 0 0 0 0 0 0 0 0 0 0 0 0 0 0 0 0 0 0 0 0 0 0 0 0 0 0 0
6 10 6 6 6 10 10 10 3 3 3 0 0 0 0 0 0 0 0 0 0 0 0 0 0 0 0 0 0 0 0 0 0 0 0 0 0 0 0 0 0 0 0
6 6 6 3 3 10 3 0 3 3 3 0 0 0 0 0 0 0 0 0 0 0 0 0 0 0 0 0 0 0 0 0 0 0 0 0 0 0 0 0 0 0 0
3 6 3 6 6 6 0 0 0 0 3 3 0 0 0 0 0 0 0 0 0 0 0 0 0 0 0 0 0 0 0 0 0 0 0 0 0 0 0 0 0 0 0
0 3 3 3 6 6 0 0 0 0 0 3 0 0 0 0 0 0 0 0 0 0 0 0 0 0 0 0 0 0 0 0 0 0 0 0 0 0 0 0 0 0 0
3 6 3 3 3 3 0 0 0 0 0 0 0 0 0 0 0 0 0 0 0 0 0 0 0 0 0 0 0 0 0 0 0 0 0 0 0 0 0 0 0 0 0
6 6 6 6 6 10 0 0 0 0 0 0 0 0 0 0 0 0 0 0 0 0 0 0 0 0 0 0 0 0 0 0 0 0 0 0 0 0 0 0 0 0 0

GEFSMA_con_cape1000_318.txt.gz
Probability
10 10 10 16 16 10 10 16 13 13 6 0 0 3 0 3 6 6 6 26 29 32 35 32 32 35 35 39 29 29 29 32 26 23 26 29 26 29 32 29 29 29 26
10 10 10 13 13 10 10 10 6 6 0 0 0 3 3 0 3 3 6 13 16 23 32 32 35 35 26 26 32 29 26 23 26 26 26 19 19 26 29 32 29 29 26
3 10 10 10 6 10 10 3 0 0 0 0 0 3 3 0 0 0 6 13 13 10 26 32 35 39 32 29 29 29 26 26 23 26 26 19 26 29 23 23 29 19 16
3 3 6 3 3 6 6 10 3 0 0 0 0 3 3 3 0 3 3 6 10 10 13 16 23 26 26 26 29 26 26 26 26 29 26 26 26 23 23 23 23 19 13
13 6 6 6 3 6 3 6 3 0 0 0 0 3 3 3 0 0 3 3 3 6 10 13 19 19 26 26 29 26 32 26 26 26 23 23 26 26 23 23 19 16 13
10 6 6 3 3 3 3 0 0 0 0 0 3 3 3 3 0 0 3 3 3 3 6 6 10 10 16 23 26 29 26 19 26 26 26 23 23 19 23 13 16 13 10
10 6 6 3 3 3 3 3 0 0 0 0 0 0 0 0 0 0 0 0 3 6 6 6 6 6 6 13 23 26 29 23 23 23 19 23 26 19 16 16 13 13 10
10 6 0 3 3 3 3 0 0 0 0 0 0 0 0 0 0 0 0 0 0 3 6 6 6 6 6 6 6 13 29 29 29 23 19 19 16 16 13 13 13 16 10
10 6 0 3 3 3 3 3 0 0 0 0 0 0 0 0 0 0 0 0 0 0 3 10 6 6 3 6 6 6 13 19 29 32 26 23 16 16 19 13 16 13 16
10 6 3 3 3 3 3 3 0 0 0 0 0 0 0 0 0 0 0 0 0 0 0 0 3 3 3 3 3 3 6 10 13 29 29 29 29 19 19 23 23 19 13
6 13 3 3 3 3 3 0 0 0 0 0 0 0 0 0 0 0 0 0 0 0 0 0 0 3 3 3 3 3 3 3 3 13 19 26 29 26 26 23 23 26 19
10 13 10 6 3 3 3 0 0 0 0 0 0 0 0 0 0 0 0 0 0 0 0 0 0 0 3 3 3 3 3 0 0 0 10 6 16 19 23 23 23 26 23
13 13 10 10 10 6 0 0 0 0 3 0 0 0 0 0 0 0 0 0 0 0 0 0 0 0 0 3 3 3 3 0 0 0 0 0 6 13 13 16 19 23 16
10 13 13 6 6 3 3 3 3 0 0 0 0 0 0 0 0 0 0 0 0 0 0 0 0 0 0 0 3 0 3 0 0 0 0 0 0 3 3 6 6 6 6
10 10 10 6 3 3 3 0 0 0 0 0 0 0 0 0 0 0 0 0 0 0 0 0 0 0 0 0 0 0 3 0 0 0 0 0 0 0 0 0 0 0 0
6 10 10 6 6 6 3 0 0 0 0 0 0 0 0 0 0 0 0 0 0 0 0 0 0 0 0 0 0 0 0 0 0 0 0 0 0 0 0 0 0 0 0
6 10 10 10 6 3 3 3 0 0 0 0 0 0 0 0 0 0 0 0 0 0 0 0 0 0 0 0 0 0 0 0 0 0 0 0 0 0 0 0 0 0 0
6 6 6 6 6 6 3 3 3 0 0 0 0 0 0 0 0 0 0 0 0 0 0 0 0 0 0 0 0 0 0 0 0 0 0 0 0 0 0 0 0 0 0
6 3 6 3 3 3 6 6 6 3 0 0 0 0 0 0 0 0 0 0 0 0 0 0 0 0 0 0 0 0 0 0 0 0 0 0 0 0 0 0 0 0 0
6 3 0 3 3 3 6 3 3 3 0 0 0 0 0 0 0 0 0 0 0 0 0 0 0 0 0 0 0 0 0 0 0 0 0 0 0 0 0 0 0 0 0
3 3 3 3 3 6 6 6 3 3 3 0 0 0 0 0 0 0 0 0 0 0 0 0 0 0 0 0 0 0 0 0 0 0 0 0 0 0 0 0 0 0 0
6 6 3 3 3 6 3 0 3 3 0 0 0 0 0 0 0 0 0 0 0 0 0 0 0 0 0 0 0 0 0 0 0 0 0 0 0 0 0 0 0 0 0
3 6 6 3 3 3 0 0 0 3 0 3 3 3 0 0 0 0 0 0 0 0 0 0 0 0 0 0 0 0 0 0 0 0 0 0 0 0 0 0 0 0 0
0 0 3 3 6 3 0 0 0 0 0 0 3 3 3 3 0 0 0 0 0 0 0 0 0 0 0 0 0 0 0 0 0 0 0 0 0 0 0 0 0 0 0
0 0 0 0 3 0 0 0 0 0 0 0 0 0 0 3 0 0 0 0 0 0 0 0 0 0 0 0 0 0 0 0 0 0 0 0 0 0 0 0 0 0 0
0 0 0 0 0 3 0 0 0 0 0 0 0 0 0 0 0 0 0 0 0 0 0 0 0 0 0 0 0 0 0 0 0 0 0 0 0 0 0 0 0 0 0